Powrót do katalogu

OPS 4682 DEB

AktywnyPO
NORAD 15340·DEBRIS·🇺🇸 United States

Wystrzelony Apr 3, 1965 z Vandenberg Space Force Base

Loading…

Następne Przeloty (najbliższe 24 godziny)

TLE

ŚwieżeSource: Space-Track

Epoka: Sep 14, 2026, 13:58 UTC

1 15340U 65027R   26257.58222605 -.00000519  00000-0 -17653-2 0  9996
2 15340  90.2445   7.6923 0038195 149.0956 273.5742 12.99192138995138

Śledź OPS 4682 DEB w czasie rzeczywistym z AllMySat

Download on the App Store